TimePDT,TemperatureF,Dew PointF,Humidity,Sea Level PressureIn,VisibilityMPH,Wind Direction,Wind SpeedMPH,Gust SpeedMPH,PrecipitationIn,Events,Conditions,WindDirDegrees,DateUTC
12:00 AM,50.0,44.6,82,30.23,15.0,East,5.8,-,N/A,,Overcast,80,2012-10-18 07:00:00
1:00 AM,50.0,44.6,82,30.22,15.0,East,5.8,-,N/A,,Overcast,80,2012-10-18 08:00:00
2:00 AM,50.0,44.6,82,30.22,15.0,East,5.8,-,N/A,,Overcast,100,2012-10-18 09:00:00
3:00 AM,50.0,44.6,82,30.22,15.0,East,5.8,-,N/A,,Overcast,90,2012-10-18 10:00:00
4:00 AM,50.0,44.6,82,30.19,15.0,East,5.8,-,N/A,,Overcast,100,2012-10-18 11:00:00
5:00 AM,50,44,73,30.17,15,East,5.8,,,,Overcast,100,2012-10-18 12:00:00
5:00 AM,50.0,44.6,82,30.17,15.0,East,6.9,-,N/A,,Overcast,100,2012-10-18 12:00:00
6:00 AM,50.0,44.6,82,30.15,15.0,East,8.1,-,N/A,Rain,Light Rain Showers,100,2012-10-18 13:00:00
6:34 AM,50.0,-9999,N/A,-9999,15.0,East,6.9,-,N/A,,Light Drizzle,100,2012-10-18 13:34:00
7:00 AM,50.0,44.6,82,30.13,15.0,East,8.1,-,N/A,,Light Drizzle,100,2012-10-18 14:00:00
7:09 AM,50.0,-9999,N/A,-9999,20.0,East,6.9,-,N/A,,Overcast,90,2012-10-18 14:09:00
8:00 AM,50.0,42.8,76,30.10,20.0,East,9.2,-,N/A,,Overcast,100,2012-10-18 15:00:00
9:00 AM,51.8,42.8,71,30.08,20.0,East,9.2,-,N/A,,Overcast,100,2012-10-18 16:00:00
10:00 AM,51.8,42.8,71,30.06,20.0,East,5.8,-,N/A,,Overcast,90,2012-10-18 17:00:00
10:19 AM,51.8,-9999,N/A,-9999,20.0,East,8.1,-,N/A,Rain,Light Rain Showers,90,2012-10-18 17:19:00
10:55 AM,53.6,-9999,N/A,-9999,15.0,ESE,4.6,-,N/A,,Overcast,110,2012-10-18 17:55:00
11:00 AM,53,45,67,30.03,15,ESE,5.8,,,Rain,Light Rain Showers,110,2012-10-18 18:00:00
11:00 AM,53.6,44.6,72,30.03,15.0,East,6.9,-,N/A,,Overcast,100,2012-10-18 18:00:00
12:00 PM,53.6,44.6,72,30.02,15.0,NNE,2.3,-,N/A,,Overcast,30,2012-10-18 19:00:00
1:00 PM,53.6,46.4,77,29.98,15.0,South,2.3,-,N/A,Rain,Light Rain Showers,180,2012-10-18 20:00:00
2:00 PM,51.8,48.2,88,29.95,10.0,East,8.1,-,N/A,Rain,Light Rain Showers,90,2012-10-18 21:00:00
3:00 PM,51.8,48.2,88,29.91,10.0,ENE,10.4,-,N/A,Rain,Light Rain,70,2012-10-18 22:00:00
4:00 PM,50.0,48.2,94,29.88,8.0,NE,10.4,-,N/A,Rain,Light Rain,50,2012-10-18 23:00:00
4:25 PM,50.0,-9999,N/A,-9999,6.0,ENE,12.7,-,N/A,Rain,Light Rain,70,2012-10-18 23:25:00
4:45 PM,50.0,-9999,N/A,-9999,2.5,East,11.5,-,N/A,Rain,Light Rain,80,2012-10-18 23:45:00
5:00 PM,50.0,48.2,94,29.85,2.0,ENE,9.2,-,N/A,Rain,Light Rain,70,2012-10-19 00:00:00
5:56 PM,50.0,-9999,N/A,-9999,3.0,ENE,10.4,-,N/A,Rain,Light Rain,60,2012-10-19 00:56:00
6:00 PM,50.0,48.2,94,29.81,3.0,NE,9.2,-,N/A,Rain,Light Rain,50,2012-10-19 01:00:00
7:00 PM,51.8,48.2,88,29.79,6.0,ENE,9.2,-,N/A,Rain,Light Rain,60,2012-10-19 02:00:00
8:00 PM,50.0,48.2,94,29.78,4.0,ENE,9.2,-,N/A,Rain,Light Rain,70,2012-10-19 03:00:00
9:00 PM,51.8,50.0,94,29.75,2.5,East,10.4,-,N/A,Rain,Rain,80,2012-10-19 04:00:00
9:32 PM,51.8,-9999,N/A,-9999,2.0,East,9.2,-,N/A,Rain,Rain,90,2012-10-19 04:32:00
10:00 PM,51.8,50.0,94,29.75,2.0,East,15.0,-,N/A,Rain,Rain,90,2012-10-19 05:00:00
11:00 PM,52,50,89,29.74,4,ESE,10.4,,,Rain,Light Rain,120,2012-10-19 06:00:00
11:00 PM,51.8,50.0,94,29.74,4.0,ESE,10.4,-,N/A,Rain,Light Rain,120,2012-10-19 06:00:00
11:31 PM,51.8,-9999,N/A,-9999,4.0,East,10.4,18.4,N/A,,Overcast,100,2012-10-19 06:31:00